Location: Goodmans Corner
(38.2049°N, 120.9872°W)
Time: 16:45:32
(UTC+00:00)

Envisat - Visible Passes

Search period start: 21 April 2019 00:00
Search period end: 01 May 2019 00:00
Orbit: 764 x 766 km, 98.2° (Epoch: 21 April)

Date Brightness Start Highest point End Pass type
(mag) Time Alt. Az. Time Alt. Az. Time Alt. Az.
21 Apr 4.9 03:22:43 10° SSW 03:27:15 33° W 03:31:49 10° NNW visible
23 Apr 5.7 03:49:30 10° SW 03:52:58 18° W 03:56:26 10° NW visible
24 Apr 4.4 03:11:11 10° S 03:15:59 42° W 03:20:47 10° NNW visible
26 Apr 5.4 03:37:38 10° SSW 03:41:39 23° W 03:45:41 10° NW visible
28 Apr 5.9 04:05:12 10° WSW 04:07:25 13° W 04:09:39 10° WNW visible
29 Apr 5.0 03:25:57 10° SSW 03:30:21 30° W 03:34:47 10° NW visible
